[[{"header":{"parameterUnit":"m.s-1","parameterCategory":1,"la1":30.2991,"la2":30.254,"lo1":-89.0895,"lo2":-89.0444,"dx":0.0017,"dy":0.0017,"nx":28,"ny":28,"refTime":"2022-12-12T03:00:00:Z","depth":0,"parameterNumber":2,"parameterNumberName":"U-component_of_WINDS"},"data":[0,0,0,0,0,0,0,0,0,0,0,0,0,0,0,0,0,0,0,0,0,0,0,0,0,0,0,0,0,0,0,0,0,0,0,0,0,0,0,0,0,0,0,0,0,0,0,0,0,0,0,0,0,0,0,0,0,0,-2.5378,-2.5377,0,-2.5279,-2.5278,-2.5276,-2.5165,-2.5163,-2.5161,-2.516,-2.506,-2.5059,-2.5057,0,0,0,0,0,0,0,0,0,0,0,0,0,-2.5474,-2.5473,-2.5378,-2.5377,-2.5376,-2.5279,-2.5277,-2.5276,-2.5165,-2.5163,-2.5161,-2.5159,-2.506,-2.5059,-2.5057,0,0,0,0,0,0,0,0,0,0,0,0,0,-2.541,-2.5473,-2.5379,-2.5309,-2.5301,-2.5279,-2.5277,-2.5276,-2.5165,-2.5163,-2.516,-2.5158,-2.506,-2.5059,-2.5057,-2.5096,0,0,-2.5052,-2.5051,0,0,0,0,0,0,0,0,-2.5414,-2.5406,-2.532,-2.5313,-2.5305,-2.5231,-2.5274,-2.5216,-2.5166,-2.5217,-2.516,-2.5157,-2.5119,-2.5112,-2.5099,-2.5091,-2.5087,-2.5052,-2.5051,-2.505,-2.505,0,0,0,0,0,0,0,-2.5418,-2.541,-2.5339,-2.5319,-2.531,-2.5283,-2.5271,-2.5263,-2.5183,-2.5212,-2.5204,-2.5194,-2.5114,-2.5101,-2.5096,-2.5086,-2.5052,-2.505,-2.5049,-2.5049,-2.5106,-2.5109,0,0,0,0,0,0,-2.5433,-2.5414,-2.5342,-2.5336,-2.5354,-2.5283,-2.527,-2.5258,-2.5183,-2.5169,-2.5196,-2.5189,-2.5105,-2.5098,-2.5092,-2.5133,-2.505,-2.5048,-2.5047,-2.5104,-2.5107,-2.5109,0,0,0,0,0,0,-2.5435,-2.5427,-2.5346,-2.5373,-2.536,-2.5284,-2.5271,-2.5257,-2.5243,-2.517,-2.5156,-2.5197,-2.5103,-2.5094,-2.5096,-2.5128,-2.5048,-2.5046,-2.5101,-2.5105,-2.5108,-2.5216,0,0,0,0,0,0,-2.5439,-2.5429,-2.5442,-2.5374,-2.5359,-2.5351,-2.5273,-2.5257,-2.5241,-2.523,-2.5167,-2.5154,-2.51,-2.5099,-2.5094,-2.5124,-2.5045,-2.5097,-2.5102,-2.5107,-2.5209,-2.5223,-2.5235,0,0,0,0,0,-2.5442,-2.5477,-2.5444,-2.5436,-2.5375,-2.5353,-2.5345,-2.5282,-2.5244,-2.5257,-2.521,-2.5156,-2.5126,-2.51,-2.5094,-2.5124,-2.5095,-2.5101,-2.5106,-2.5203,-2.522,-2.5234,0,0,0,0,0,0,-2.5552,-2.5467,-2.5429,-2.5442,-2.5406,-2.5335,-2.5349,-2.5301,-2.5275,-2.5267,-2.519,-2.5176,-2.5188,-2.5156,-2.5129,-2.5158,-2.5103,-2.5107,-2.5179,-2.5194,-2.5206,-2.5214,-2.5043,0,0,0,0,0,-2.5577,-2.5567,-2.5493,-2.5512,-2.5496,-2.5426,-2.5415,-2.5369,-2.5328,-2.5312,-2.5266,-2.5229,-2.5211,-2.5201,-2.518,-2.5204,-2.5189,-2.5222,-2.5235,-2.5245,-2.5251,-2.5262,-2.5276,-2.5128,-2.5128,-2.5128,0,0,-2.563,-2.5582,-2.558,-2.5533,-2.5499,-2.5491,-2.5414,-2.5408,-2.5401,-2.5312,-2.531,-2.5275,-2.5229,-2.5243,-2.5246,-2.5216,-2.5288,-2.5253,-2.5262,-2.5261,-2.5269,-2.5283,-2.5296,-2.5132,-2.5131,-2.5131,0,0,-2.5722,-2.5684,-2.5696,-2.5664,-2.5615,-2.5568,-2.5571,-2.5507,-2.5481,-2.5478,-2.5411,-2.5402,-2.5372,-2.5343,-2.5324,-2.5406,-2.5356,-2.5401,-2.5468,-2.548,-2.5492,-2.5502,-2.5532,-2.5543,-2.5407,-2.5407,-2.5407,0,-2.5794,-2.5777,-2.5709,-2.5707,-2.5688,-2.5607,-2.5619,-2.5592,-2.5538,-2.5528,-2.5495,-2.5457,-2.542,-2.5426,-2.5446,-2.5433,-2.5435,-2.5408,-2.5496,-2.5505,-2.5513,-2.5541,-2.5552,-2.5413,-2.5412,-2.5412,-2.5411,0,-2.5869,-2.5859,-2.5874,-2.5824,-2.5808,-2.5813,-2.5746,-2.5738,-2.5694,-2.5651,-2.5651,-2.5604,-2.5573,-2.5571,-2.5528,-2.5571,-2.5554,-2.551,-2.5452,-2.5534,-2.5559,-2.5569,-2.5421,-2.5419,-2.5417,-2.5416,0,0,-2.6025,-2.5938,-2.5945,-2.5922,-2.5862,-2.5853,-2.5855,-2.5824,-2.5819,-2.5785,-2.5785,-2.5763,-2.5722,-2.5701,-2.5654,-2.5664,-2.5733,-2.5619,-2.5616,-2.5642,-2.5779,-2.5812,-2.5826,-2.57,-2.5702,-2.5703,-2.5782,0,-2.6107,-2.6105,-2.6043,-2.6059,-2.605,-2.5973,-2.5975,-2.5939,-2.59,-2.5886,-2.5843,-2.5828,-2.5775,-2.5762,-2.5769,-2.5724,-2.576,-2.5717,-2.57,-2.57,-2.5714,-2.5838,-2.5873,-2.5951,-2.5792,-2.5793,-2.5794,0,-2.62,-2.6172,-2.6187,-2.6127,-2.6121,-2.6124,-2.6091,-2.6079,-2.6037,-2.6008,-2.5985,-2.5932,-2.5931,-2.5877,-2.5875,-2.5847,-2.5837,-2.5814,-2.5815,-2.5811,-2.5752,-2.5838,-2.5974,-2.5986,-2.5809,-2.5808,-2.5807,0,-2.6314,-2.628,-2.6284,-2.6267,-2.6197,-2.6201,-2.6172,-2.6127,-2.6113,-2.6085,-2.6075,-2.6047,-2.6033,-2.6013,-2.5954,-2.592,-2.5959,-2.59,-2.5936,-2.5937,-2.5947,-2.5947,-2.6083,-2.5941,-2.5941,-2.594,-2.594,0,-2.6411,-2.6423,-2.6334,-2.6337,-2.6349,-2.6279,-2.6293,-2.6257,-2.6218,-2.6213,-2.6145,-2.6142,-2.6065,-2.6054,-2.6008,-2.6014,-2.6008,-2.5985,-2.5972,-2.599,-2.5994,-2.5982,-2.5976,-2.5943,-2.5943,-2.5942,-2.5942,0,-2.6539,-2.648,-2.648,-2.6414,-2.6398,-2.641,-2.6354,-2.6354,-2.6311,-2.6306,-2.6301,-2.6233,-2.6217,-2.6156,-2.6125,-2.6094,-2.6114,-2.6091,-2.6129,-2.6121,-2.6159,-2.6157,-2.6293,-2.6308,-2.6157,-2.6158,-2.6159,0,-2.6605,-2.6612,-2.6548,-2.6539,-2.6514,-2.6501,-2.6486,-2.6418,-2.6406,-2.6359,-2.6366,-2.6343,-2.6322,-2.6299,-2.6248,-2.6224,-2.6199,-2.6248,-2.6195,-2.6213,-2.62,-2.62,-2.6201,-2.626,-2.6262,-2.6264,-2.6265,0,-2.6728,-2.6699,-2.6679,-2.6651,-2.6635,-2.6609,-2.6579,-2.6577,-2.6501,-2.6491,-2.6473,-2.6456,-2.6424,-2.6403,-2.6371,-2.6342,-2.6292,-2.6282,-2.6289,-2.6308,-2.633,-2.6319,-2.616,-2.6279,-2.6278,-2.6277,-2.6276,-2.6275,-2.6827,-2.683,-2.6785,-2.6767,-2.6737,-2.6711,-2.6709,-2.6666,-2.6649,-2.6618,-2.6579,-2.6566,-2.6525,-2.6476,-2.6451,-2.644,-2.6412,-2.6422,-2.6425,-2.6428,-2.6437,-2.6332,-2.6434,-2.6434,-2.6433,-2.6433,-2.6432,0,-2.6946,-2.6914,-2.6898,-2.6858,-2.6844,-2.6797,-2.6762,-2.6754,-2.6743,-2.6709,-2.6689,-2.6669,-2.6649,-2.6596,-2.6571,-2.6573,-2.6549,-2.6569,-2.6568,-2.6562,-2.6464,-2.646,-2.6588,-2.6588,-2.6588,-2.6588,-2.6588,-2.6588,-2.7007,-2.701,-2.6976,-2.6965,-2.6932,-2.6919,-2.6903,-2.6879,-2.6851,-2.6832,-2.6815,-2.6781,-2.6739,-2.6711,-2.669,-2.6675,-2.667,-2.6697,-2.6675,-2.6584,-2.6569,-2.6555,-2.6551,-2.6696,-2.6696,-2.6774,-2.6774,-2.6775]},{"header":{"parameterUnit":"m.s-1","parameterCategory":1,"la1":30.2991,"la2":30.254,"lo1":-89.0895,"lo2":-89.0444,"dx":0.0017,"dy":0.0017,"nx":28,"ny":28,"refTime":"2022-12-12T03:00:00:Z","depth":0,"parameterNumber":3,"parameterNumberName":"V-component_of_WINDS"},"data":[0,0,0,0,0,0,0,0,0,0,0,0,0,0,0,0,0,0,0,0,0,0,0,0,0,0,0,0,0,0,0,0,0,0,0,0,0,0,0,0,0,0,0,0,0,0,0,0,0,0,0,0,0,0,0,0,0,0,0.4475,0.4474,0,0.4432,0.4432,0.4431,0.438,0.4379,0.4379,0.4378,0.4335,0.4335,0.4334,0,0,0,0,0,0,0,0,0,0,0,0,0,0.4513,0.4512,0.4475,0.4474,0.4474,0.4432,0.4432,0.4431,0.438,0.4379,0.4378,0.4377,0.4335,0.4335,0.4334,0,0,0,0,0,0,0,0,0,0,0,0,0,0.4486,0.4512,0.4475,0.4443,0.444,0.4433,0.4432,0.4431,0.4381,0.4379,0.4378,0.4377,0.4335,0.4335,0.4334,0.4355,0,0,0.4333,0.4332,0,0,0,0,0,0,0,0,0.4488,0.4485,0.4448,0.4445,0.4442,0.441,0.443,0.4406,0.4381,0.4403,0.4378,0.4376,0.4361,0.4358,0.4353,0.4353,0.4351,0.4333,0.4332,0.4332,0.4332,0,0,0,0,0,0,0,0.4489,0.4486,0.4458,0.4448,0.4444,0.4432,0.4427,0.4425,0.4389,0.4401,0.4397,0.4393,0.4359,0.4354,0.4352,0.435,0.4333,0.4332,0.4332,0.4331,0.4367,0.4368,0,0,0,0,0,0,0.4496,0.4488,0.4459,0.4457,0.4462,0.4432,0.4426,0.4422,0.4389,0.4383,0.4394,0.4391,0.4355,0.4353,0.435,0.4373,0.4332,0.4331,0.4331,0.4365,0.4367,0.4368,0,0,0,0,0,0,0.4497,0.4494,0.4461,0.4471,0.4466,0.4433,0.4428,0.4421,0.4416,0.4384,0.4377,0.4395,0.4354,0.4351,0.4354,0.4371,0.4331,0.4331,0.4364,0.4366,0.4367,0.4418,0,0,0,0,0,0,0.4498,0.4494,0.4501,0.4472,0.4466,0.4466,0.4429,0.4421,0.4415,0.441,0.4383,0.4377,0.4353,0.4356,0.4354,0.4369,0.433,0.4362,0.4365,0.4367,0.4415,0.4422,0.4427,0,0,0,0,0,0.45,0.4517,0.4502,0.4499,0.4474,0.4466,0.4463,0.4435,0.4417,0.4424,0.4403,0.4378,0.4369,0.4356,0.4354,0.4369,0.4361,0.4364,0.4367,0.4412,0.442,0.4427,0,0,0,0,0,0,0.4549,0.4512,0.4495,0.4503,0.4489,0.4458,0.4466,0.4444,0.4434,0.443,0.4395,0.4389,0.4397,0.4384,0.437,0.4388,0.4362,0.4364,0.4397,0.4404,0.4411,0.4414,0.433,0,0,0,0,0,0.4561,0.4558,0.4526,0.4537,0.453,0.45,0.4495,0.4475,0.4458,0.4451,0.4431,0.4416,0.441,0.4406,0.4399,0.4413,0.4407,0.4423,0.4429,0.4434,0.4437,0.4444,0.4451,0.4378,0.4378,0.4378,0,0,0.4585,0.4565,0.4565,0.4546,0.4532,0.453,0.4494,0.4493,0.4492,0.4451,0.4453,0.4438,0.4419,0.4429,0.4432,0.4417,0.4456,0.4438,0.4442,0.4442,0.4448,0.4455,0.4461,0.438,0.4379,0.4379,0,0,0.4629,0.4613,0.462,0.4607,0.4587,0.4567,0.4569,0.4542,0.453,0.4532,0.4502,0.45,0.4489,0.4477,0.447,0.4512,0.4489,0.451,0.4542,0.455,0.4556,0.4561,0.4577,0.4583,0.4513,0.4513,0.4513,0,0.4662,0.4657,0.4627,0.4628,0.4622,0.4585,0.4593,0.4582,0.456,0.4556,0.4541,0.4528,0.4513,0.4519,0.453,0.4525,0.4527,0.4513,0.4558,0.4563,0.4567,0.4581,0.4587,0.4516,0.4515,0.4515,0.4515,0,0.4699,0.4697,0.4706,0.4686,0.468,0.4685,0.4656,0.4654,0.4634,0.4616,0.4619,0.46,0.4588,0.4588,0.4569,0.4593,0.4585,0.4564,0.4536,0.4577,0.459,0.4595,0.452,0.4519,0.4518,0.4517,0,0,0.4771,0.4736,0.474,0.4731,0.4707,0.4704,0.4708,0.4697,0.4697,0.4683,0.4686,0.4679,0.4661,0.4652,0.4632,0.4639,0.4674,0.4617,0.4616,0.4629,0.47,0.4716,0.4723,0.4659,0.466,0.4661,0.4702,0,0.4811,0.4815,0.4788,0.48,0.4798,0.4764,0.4768,0.4754,0.4737,0.4734,0.4716,0.4712,0.4687,0.4682,0.4688,0.4669,0.4688,0.4665,0.4662,0.4662,0.4668,0.473,0.4746,0.4786,0.4707,0.4708,0.4708,0,0.4857,0.4847,0.4858,0.4835,0.4833,0.4836,0.4825,0.4822,0.4806,0.4794,0.4786,0.4762,0.4765,0.4739,0.4744,0.4729,0.4726,0.4717,0.4718,0.4716,0.4688,0.473,0.4798,0.4804,0.4716,0.4715,0.4715,0,0.4909,0.4898,0.4904,0.4898,0.487,0.4874,0.4863,0.4845,0.4841,0.4831,0.4828,0.4819,0.4814,0.4808,0.4783,0.4766,0.4791,0.4763,0.4781,0.4782,0.4788,0.4788,0.4856,0.4786,0.4786,0.4786,0.4786,0,0.4956,0.4964,0.4927,0.4931,0.494,0.491,0.492,0.4906,0.4891,0.4892,0.4862,0.4864,0.4831,0.4829,0.481,0.4817,0.4815,0.4806,0.48,0.4808,0.481,0.4806,0.4803,0.4787,0.4787,0.4787,0.4786,0,0.5015,0.4991,0.4995,0.497,0.4963,0.4971,0.4949,0.4952,0.4935,0.4936,0.4935,0.4907,0.4904,0.4879,0.4869,0.4856,0.4871,0.486,0.4877,0.4873,0.4894,0.4892,0.4962,0.4971,0.4895,0.4896,0.4896,0,0.5047,0.5053,0.5028,0.5027,0.5017,0.5015,0.501,0.4982,0.4979,0.4962,0.4967,0.4961,0.4955,0.4951,0.4931,0.4924,0.4913,0.4938,0.4912,0.492,0.4914,0.4914,0.4915,0.4944,0.4945,0.4946,0.4946,0,0.5105,0.5094,0.5088,0.508,0.5076,0.5067,0.5057,0.5058,0.5026,0.5025,0.5021,0.5016,0.5007,0.5002,0.4992,0.4981,0.4959,0.4955,0.4959,0.4967,0.4977,0.4972,0.4892,0.4953,0.4952,0.4952,0.4952,0.4951,0.5152,0.5156,0.514,0.5136,0.5126,0.5117,0.5119,0.5102,0.5099,0.5089,0.5073,0.5072,0.5057,0.5041,0.5032,0.5032,0.5018,0.5024,0.5026,0.5028,0.5032,0.4977,0.503,0.5029,0.5029,0.5029,0.5029,0,0.521,0.5198,0.5195,0.5182,0.5179,0.5159,0.5147,0.5146,0.5145,0.5134,0.5128,0.5125,0.512,0.51,0.5094,0.5097,0.5087,0.5096,0.5096,0.5094,0.5044,0.5041,0.5105,0.5105,0.5105,0.5105,0.5105,0.5105,0.5239,0.5246,0.5233,0.5234,0.5222,0.5221,0.5217,0.5209,0.52,0.5197,0.5194,0.5181,0.5166,0.5158,0.5154,0.5148,0.5147,0.516,0.5151,0.5105,0.5097,0.509,0.5088,0.516,0.516,0.5201,0.5202,0.5202]}]]